Home > Time Zones > World Clock > Weather > Ghana > Accra > Past weeks

Flag for Ghana Weather past 2 weeks in Accra, Ghana

Now
84 °F

Scattered clouds.


Feels Like: 90 °F
Forecast: 74 / 85 °F
Wind: 15 mph from West

Location: Accra Airport

Current Time: Aug 1, 2015 at 12:47:18 PM

Latest Report: Aug 1, 2015 at 12:00 PM


Visibility: N/A

Pressure: 29.95 "Hg

Humidity: 66%

Dew point: 72 °F

Location of AccraLocation

Historic Weather in Accra — Graph

°F

Accra temperature yesterday

Maximum temperature yesterday: 81 °F (at 1:00 PM)
Minimum temperature yesterday: 75 °F (at 12:00 AM)
Average temperature yesterday: 77 °F

Past Weeks' High & Low Weather Summary

 TemperatureHumidityPressure
High84 °F (Jul 22, 12:00 PM)94% (Jul 17, 6:00 PM)30.07 "Hg (Jul 17, 6:00 PM)
Low72 °F (Jul 29, 1:54 AM)62% (Jul 27, 12:00 PM)29.89 "Hg (Jul 17, 4:00 PM)
Average77 °F84%29.97 "Hg
* Reported Jul 17 11:00 AM — Aug 1 11:00 AM, Accra, Weather by CustomWeather, © 2015

Note: Actual official high and low records may vary slightly from our data, if they occured in-between our weather recording intervals... More about our weather records

Advertising

Accra weather history for previous 24 hours

 ConditionsComfort  
Time TempWeatherWind HumidityBarometerVisibility
11:00 AM
Sat, Aug 1
82 °FPartly sunny.15 mph70%29.98 "HgN/A
10:00 AM79 °FOvercast.14 mph79%29.98 "HgN/A
9:00 AM79 °FScattered clouds.13 mph79%30.01 "HgN/A
8:00 AM75 °FPassing clouds.13 mph89%29.98 "HgN/A
7:00 AM73 °FPassing clouds.9 mph94%29.98 "HgN/A
6:00 AM73 °FPartly sunny.8 mph94%29.95 "HgN/A
5:00 AM73 °FPassing clouds.7 mph94%29.92 "HgN/A
4:00 AM73 °FClear.6 mph94%29.92 "Hg10 mi
3:00 AM73 °FClear.9 mph94%29.92 "Hg10 mi
1:00 AM73 °FClear.8 mph94%29.95 "Hg10 mi
12:00 AM75 °FClear.7 mph89%29.98 "Hg10 mi
11:00 PM
Fri, Jul 31
75 °FClear.8 mph89%29.98 "Hg10 mi
10:00 PM75 °FClear.8 mph89%29.98 "Hg10 mi
8:00 PM77 °FClear.12 mph83%29.92 "Hg10 mi
7:00 PM77 °FClear.12 mph83%29.89 "Hg10 mi
6:00 PM79 °FSunny.10 mph79%29.89 "Hg10 mi
5:00 PM79 °FSunny.15 mph74%29.89 "Hg10 mi
4:00 PM79 °FSunny.18 mph74%29.89 "Hg10 mi
3:00 PM79 °FSunny.18 mph74%29.92 "Hg10 mi
2:00 PM81 °FPassing clouds.15 mph74%29.92 "HgN/A
1:00 PM81 °FScattered clouds.16 mph74%29.95 "HgN/A
12:00 PM79 °FPartly sunny.12 mph79%29.98 "HgN/A
Weather by CustomWeather, © 2015

See weather overviewHow to use our weather pages